sat.trackr.live / text

‹ back to catalog

STARLINK-2424

NORAD 47834 · 2021-018AZ

PAYLOAD ACTIVE UNKNOWN

§ Identity

Operator
Country
US
Launch date
2021-03-11
Launch site
AFETR
Launch vehicle
Mass (kg)
RCS (m²)

Purposes: comms

External: N2YO · Heavens-Above · Gunter

§ Orbital elements

Epoch: 2026-09-20T00:12:43.113312Z

Period
94.01 min
Inclination
53.1594°
Eccentricity
0.0001160
Mean motion
15.31713652 rev/d
Perigee alt
469.9 km
Apogee alt
471.5 km
Semi-major
6,848.8 km
B*
5.2817e-5
RAAN
60.7227°
Arg perigee
97.9436°
Mean anomaly
262.1697°
Rev number
30,652

§ Raw data

STARLINK-24241 47834U 21018AZ  26263.00883233  .00001275  00000+0  52817-4 0  99952 47834  53.1594  60.7227 0001160  97.9436 262.1697 15.31713652306528

JSON: /api/v1/satellites/47834 · /tle

For live sub-satellite position, see the globe view (requires WebGL).

§ Visibility from observer

Set your observer location to see the next 7 days of passes ≥ 10°. The values pass through the URL so the page stays shareable.

No JS? Fill the form by hand. The geolocation button needs JavaScript.